TimeAST,TemperatureF,Dew PointF,Humidity,Sea Level PressureIn,VisibilityMPH,Wind Direction,Wind SpeedMPH,Gust SpeedMPH,PrecipitationIn,Events,Conditions,WindDirDegrees,DateUTC
12:00 AM,80.6,53.6,39,29.98,-9999.0,Variable,2.3,-,N/A,,Clear,0,2012-11-06 21:00:00
12:30 AM,78.8,57.2,47,29.98,-9999.0,Variable,2.3,-,N/A,,Clear,0,2012-11-06 21:30:00
1:00 AM,78.8,55.4,44,29.95,4.3,SW,3.5,-,N/A,,Unknown,220,2012-11-06 22:00:00
1:30 AM,78.8,55.4,44,29.95,4.3,SW,3.5,-,N/A,,Unknown,230,2012-11-06 22:30:00
2:00 AM,77.0,55.4,47,29.95,5.0,WSW,3.5,-,N/A,,Unknown,240,2012-11-06 23:00:00
2:30 AM,77.0,57.2,50,29.95,5.6,WSW,3.5,-,N/A,,Unknown,240,2012-11-06 23:30:00
3:00 AM,77,56,37,29.96,6,WSW,3.5,,,,,240,2012-11-07 00:00:00
3:00 AM,77.0,55.4,47,29.95,-9999.0,WSW,3.5,-,N/A,,Clear,240,2012-11-07 00:00:00
3:30 AM,77.0,55.4,47,29.95,-9999.0,SW,3.5,-,N/A,,Clear,230,2012-11-07 00:30:00
4:00 AM,75.2,55.4,50,29.95,-9999.0,SW,5.8,-,N/A,,Clear,220,2012-11-07 01:00:00
4:30 AM,75.2,55.4,50,29.95,-9999.0,SW,4.6,-,N/A,,Clear,220,2012-11-07 01:30:00
5:00 AM,73.4,55.4,53,29.98,-9999.0,SW,4.6,-,N/A,,Clear,220,2012-11-07 02:00:00
5:30 AM,73.4,55.4,53,29.98,-9999.0,WSW,4.6,-,N/A,,Clear,240,2012-11-07 02:30:00
6:00 AM,75.2,53.6,47,29.98,-9999.0,WSW,5.8,-,N/A,,Clear,250,2012-11-07 03:00:00
6:30 AM,75.2,53.6,47,30.01,-9999.0,West,3.5,-,N/A,,Clear,260,2012-11-07 03:30:00
7:00 AM,77.0,51.8,41,30.01,-9999.0,WSW,5.8,-,N/A,,Clear,250,2012-11-07 04:00:00
7:30 AM,78.8,55.4,44,30.01,-9999.0,WSW,5.8,-,N/A,,Clear,250,2012-11-07 04:30:00
8:00 AM,82.4,53.6,37,30.01,5.6,WSW,8.1,-,N/A,,Unknown,250,2012-11-07 05:00:00
8:30 AM,84.2,55.4,37,30.04,5.6,WSW,5.8,-,N/A,,Unknown,240,2012-11-07 05:30:00
9:00 AM,85,55,26,30.04,6,West,6.9,,,,Smoke,270,2012-11-07 06:00:00
9:00 AM,84.2,55.4,37,30.04,5.6,West,6.9,-,N/A,,Unknown,270,2012-11-07 06:00:00
9:30 AM,86.0,51.8,31,30.01,-9999.0,Variable,6.9,-,N/A,,Clear,0,2012-11-07 06:30:00
10:00 AM,87.8,48.2,25,30.01,-9999.0,West,5.8,-,N/A,,Clear,270,2012-11-07 07:00:00
10:30 AM,89.6,50.0,26,30.01,-9999.0,Variable,5.8,-,N/A,,Clear,0,2012-11-07 07:30:00
11:00 AM,91.4,46.4,21,29.98,-9999.0,Variable,5.8,-,N/A,,Clear,0,2012-11-07 08:00:00
11:30 AM,91.4,44.6,20,29.98,-9999.0,WNW,6.9,-,N/A,,Clear,290,2012-11-07 08:30:00
12:00 PM,93.2,42.8,17,29.95,-9999.0,NW,6.9,-,N/A,,Clear,310,2012-11-07 09:00:00
12:30 PM,93.2,44.6,19,29.95,-9999.0,NW,9.2,-,N/A,,Clear,310,2012-11-07 09:30:00
1:00 PM,93.2,44.6,19,29.95,-9999.0,NW,9.2,-,N/A,,Clear,320,2012-11-07 10:00:00
1:30 PM,93.2,46.4,20,29.92,-9999.0,Variable,10.4,-,N/A,,Clear,0,2012-11-07 10:30:00
2:00 PM,93.2,50.0,23,29.92,-9999.0,North,9.2,-,N/A,,Clear,10,2012-11-07 11:00:00
2:30 PM,91.4,50.0,24,29.92,-9999.0,North,9.2,-,N/A,,Clear,10,2012-11-07 11:30:00
3:00 PM,91,52,17,29.93,7,NNE,8.1,,,,Scattered Clouds,20,2012-11-07 12:00:00
3:00 PM,91.4,51.8,26,29.92,-9999.0,NNE,8.1,-,N/A,,Clear,20,2012-11-07 12:00:00
3:30 PM,89.6,57.2,33,29.92,-9999.0,NNE,9.2,-,N/A,,Clear,20,2012-11-07 12:30:00
4:00 PM,87.8,62.6,43,29.92,-9999.0,NNE,8.1,-,N/A,,Clear,20,2012-11-07 13:00:00
4:30 PM,86.0,66.2,51,29.92,-9999.0,NNE,6.9,-,N/A,,Clear,20,2012-11-07 13:30:00
5:00 PM,84.2,68.0,58,29.92,-9999.0,North,4.6,-,N/A,,Clear,10,2012-11-07 14:00:00
5:30 PM,87.8,55.4,33,29.95,-9999.0,NNW,5.8,-,N/A,,Clear,330,2012-11-07 14:30:00
6:00 PM,86.0,59.0,40,29.95,-9999.0,NNW,9.2,-,N/A,,Clear,330,2012-11-07 15:00:00
6:30 PM,84.2,60.8,45,29.95,-9999.0,NNW,9.2,-,N/A,,Clear,330,2012-11-07 15:30:00
7:00 PM,84.2,64.4,51,29.95,-9999.0,NNW,6.9,-,N/A,,Clear,340,2012-11-07 16:00:00
7:30 PM,82.4,68.0,62,29.98,-9999.0,NNW,9.2,-,N/A,,Clear,340,2012-11-07 16:30:00
8:00 PM,82.4,68.0,62,29.98,-9999.0,NNW,9.2,-,N/A,,Clear,340,2012-11-07 17:00:00
8:30 PM,82.4,69.8,66,29.98,5.6,NNW,10.4,-,N/A,,Unknown,340,2012-11-07 17:30:00
9:00 PM,82,70,59,29.97,5,NNW,10.4,,,,Widespread Dust,340,2012-11-07 18:00:00
9:00 PM,82.4,69.8,66,29.95,5.0,NNW,10.4,-,N/A,,Unknown,340,2012-11-07 18:00:00
9:30 PM,82.4,69.8,66,29.95,5.0,NNW,9.2,-,N/A,,Unknown,340,2012-11-07 18:30:00
10:00 PM,80.6,71.6,74,29.95,5.0,NNW,6.9,-,N/A,,Unknown,340,2012-11-07 19:00:00
10:30 PM,80.6,69.8,70,29.95,5.0,NNW,6.9,-,N/A,,Unknown,340,2012-11-07 19:30:00
11:00 PM,80.6,69.8,70,29.95,5.0,NNW,3.5,-,N/A,,Unknown,330,2012-11-07 20:00:00
11:30 PM,80.6,69.8,70,29.92,5.0,NW,4.6,-,N/A,,Unknown,320,2012-11-07 20:30:00